AKDT,Max TemperatureF,Mean TemperatureF,Min TemperatureF,Max Dew PointF,MeanDew PointF,Min DewpointF,Max Humidity, Mean Humidity, Min Humidity, Max Sea Level PressureIn, Mean Sea Level PressureIn, Min Sea Level PressureIn, Max VisibilityMiles, Mean VisibilityMiles, Min VisibilityMiles, Max Wind SpeedMPH, Mean Wind SpeedMPH, Max Gust SpeedMPH,PrecipitationIn, CloudCover, Events, WindDirDegrees
2013-4-1,42,38,35,36,33,28,93,80,65,30.12,30.02,29.98,10,9,0,13,6,18,0.05,7,,163
2013-4-2,46,40,35,34,30,27,81,68,50,30.32,30.25,30.13,10,10,10,9,5,,0.00,6,,32
2013-4-3,44,38,32,32,29,27,87,69,49,30.32,30.21,30.06,10,10,10,9,6,,0.00,1,,325
2013-4-4,48,39,30,28,25,21,80,54,37,30.06,29.82,29.60,10,10,10,13,6,,0.00,0,,53
2013-4-5,42,38,35,34,29,23,87,70,46,29.60,29.57,29.51,10,9,3,13,7,,0.05,8,,90
2013-4-6,50,44,37,37,34,30,87,75,58,29.79,29.58,29.44,10,10,10,15,6,28,0.01,7,,105
2013-4-7,51,43,35,37,34,32,87,73,50,30.02,29.92,29.79,10,10,10,10,6,,0.00,2,,213
2013-4-8,53,44,35,37,32,28,87,68,41,30.02,29.92,29.72,10,10,10,22,9,36,0.04,5,,126
2013-4-9,46,42,37,39,35,30,87,76,66,29.87,29.61,29.34,10,8,4,26,16,39,0.90,8,,159
2013-4-10,41,37,33,32,28,25,81,70,56,30.18,30.02,29.88,10,10,0,16,4,26,0.09,7,,203
2013-4-11,41,37,33,30,28,23,81,70,60,30.28,30.17,29.87,10,10,5,20,7,24,0.01,7,,146
2013-4-12,46,40,35,30,29,27,81,64,46,29.85,29.61,29.50,10,9,5,21,12,26,0.02,5,,118
2013-4-13,50,41,32,34,28,23,81,60,37,30.08,29.95,29.77,10,10,8,9,4,,0.00,1,,302
2013-4-14,51,42,33,34,30,27,81,62,41,30.26,30.16,30.08,10,10,10,12,4,,0.00,2,,302
2013-4-15,51,42,33,32,28,25,81,59,35,30.42,30.36,30.26,10,10,10,9,6,,0.00,3,,267
2013-4-16,44,40,37,34,31,28,81,69,57,30.44,30.34,30.15,10,10,10,20,5,29,0.00,6,,135
2013-4-17,46,42,39,41,36,32,87,80,70,30.17,30.12,30.07,10,7,2,20,11,30,0.42,8,,97
2013-4-18,42,40,39,39,37,34,93,85,76,30.16,30.02,29.92,10,6,2,8,5,,0.23,8,,279
2013-4-19,44,38,33,34,26,21,81,61,43,30.27,30.12,29.96,10,10,5,14,9,17,0.01,4,,302
2013-4-20,46,38,30,28,21,16,86,53,29,30.44,30.37,30.27,10,10,10,10,6,,0.00,0,,101
2013-4-21,50,40,30,27,21,14,75,50,25,30.56,30.51,30.44,10,10,10,8,6,,0.00,0,,152
2013-4-22,46,40,33,34,29,27,81,66,46,30.64,30.61,30.57,10,10,10,12,6,,0.00,3,,357
2013-4-23,53,43,33,36,30,27,75,60,38,30.65,30.59,30.48,10,10,10,12,5,16,0.00,1,,286
2013-4-24,46,44,41,43,38,34,87,79,66,30.47,30.21,29.92,10,8,3,12,3,22,0.28,8,,172
2013-4-25,46,44,42,43,40,36,93,84,76,29.91,29.74,29.61,10,6,3,20,7,25,1.36,8,,122
2013-4-26,44,40,37,39,37,30,87,80,71,29.63,29.57,29.52,10,5,4,21,12,29,0.24,8,,149
2013-4-27,42,38,33,36,32,28,93,79,65,29.90,29.76,29.57,10,9,6,18,7,24,0.19,8,,140
2013-4-28,37,35,33,34,31,30,93,81,75,29.82,29.71,29.66,10,9,4,21,10,28,0.23,8,,133
2013-4-29,39,36,32,30,27,25,87,74,60,30.28,30.09,29.83,10,8,1,13,8,,0.11,6,,269
2013-4-30,44,37,30,30,27,23,86,68,46,30.36,30.34,30.29,10,10,10,9,5,,0.00,4,,139